This demonstration page uses our WeatherBlox Daily Observations layout. Learn more.

Left ArrowRight Arrow

44.8408, -93.29828

Hourly Observations for December 5, 2017

Temp ( °F °C ) Dew Point ( °F °C ) Humidity (%) Winds ( mph kmh ) Pressure ( in mb ) Visibility ( mi km ) Precip ( " mm )
12:02 am 00:02 Windy with Snow Likely 27 -2.8 26 -3.3 96 96 WNW 20 31 29.62 1003 1 2 0.00 0.03
12:24 am 00:24 Windy with Snow Likely 26 -3.3 24 -4.4 92 92 WNW 28 44 29.62 1003 1 2 0.01 0.25
12:27 am 00:27 Windy with Snow Likely 26 -3.3 24 -4.4 92 92 W 31 50 29.62 1003 2 2 0.01 0.25
12:35 am 00:35 Windy with Snow Likely 26 -3.3 23 -5 88 88 WNW 21 33 29.62 1003 2 3 0.01 0.25
12:41 am 00:41 Windy with Snow Likely 26 -3.3 23 -5 88 88 W 24 39 29.62 1003 3 5 0.01 0.25
12:53 am 00:53 Windy with Snow Likely 25 -3.9 22 -5.6 88 88 WNW 26 43 29.59 1002 4 6 0.01 0.25
1:53 am 01:53 Windy with Snow Likely 23 -5 19 -7.2 85 85 WNW 24 39 29.63 1003 5 8 0.00 0.03
2:53 am 02:53 Windy with Snow Likely 22 -5.6 18 -7.8 85 85 W 25 41 29.67 1005 9 14 0.00 0.03
3:49 am 03:49 Mostly Cloudy 21 -6 16 -9 80 80 WNW 24 39 29.74 1007 10 16 0.00 0.03
3:53 am 03:53 Mostly Cloudy 22 -5.6 16 -8.9 78 78 W 24 39 29.69 1006 10 16 0.00 0.03
4:53 am 04:53 Cloudy 21 -6.1 14 -10 74 74 W 17 28 29.74 1007 10 16 0.00 0.00
5:53 am 05:53 Cloudy 18 -7.8 11 -11.7 74 74 W 26 43 29.77 1008 10 16 0.00 0.00
6:53 am 06:53 Mostly Clear 17 -8.3 10 -12.2 74 74 W 21 33 29.79 1009 10 16 0.00 0.00
7:53 am 07:53 Partly Cloudy 16 -8.9 10 -12.2 77 77 W 25 41 29.81 1010 10 16 0.00 0.00
8:20 am 08:20 Mostly Cloudy 16 -8.9 10 -12.2 77 77 W 24 39 29.85 1011 10 16 0.00 0.03
8:53 am 08:53 Windy with Snow Likely 17 -8.3 10 -12.2 74 74 W 21 33 29.84 1010 9 14 0.00 0.03
9:53 am 09:53 Mostly Cloudy 17 -8.3 8 -13.3 68 68 W 26 43 29.85 1011 10 16 0.00 0.03
10:53 am 10:53 Windy with Snow Likely 18 -7.8 10 -12.2 71 71 W 22 35 29.86 1011 9 14 0.00 0.03
11:02 am 11:02 Windy with Snow Likely 18 -7.8 10 -12.2 71 71 W 21 33 29.91 1013 9 14 0.00 0.03
11:53 am 11:53 Mostly Cloudy with Light Snow 19 -7.2 11 -11.7 71 71 W 18 30 29.86 1011 8 13 0.00 0.03
12:53 pm 12:53 Mostly Cloudy with Light Snow 20 -6.7 12 -11.1 71 71 W 24 39 29.87 1011 8 13 0.00 0.03
1:42 pm 13:42 Mostly Cloudy with Light Snow 20 -6.7 11 -11.7 68 68 W 24 39 29.91 1013 9 14 0.00 0.03
1:53 pm 13:53 Mostly Cloudy 20 -6.7 10 -12.2 65 65 W 25 41 29.86 1011 9 14 0.00 0.03
2:01 pm 14:01 Mostly Cloudy 20 -6.7 11 -11.7 68 68 W 23 37 29.91 1013 10 16 0.00 0.00
2:27 pm 14:27 Mostly Cloudy 20 -6.7 11 -11.7 68 68 W 25 41 29.91 1013 10 16 0.00 0.00
2:53 pm 14:53 Mostly Cloudy 20 -6.7 11 -11.7 68 68 W 26 43 29.87 1012 9 14 0.00 0.03
3:53 pm 15:53 Partly Cloudy 21 -6.1 11 -11.7 65 65 W 16 26 29.88 1012 10 16 0.00 0.00
4:53 pm 16:53 Mostly Clear 21 -6.1 12 -11.1 68 68 W 15 24 29.90 1013 10 16 0.00 0.00
5:53 pm 17:53 Clear 20 -6.7 12 -11.1 71 71 W 15 24 29.90 1013 10 16 0.00 0.00
6:53 pm 18:53 Clear 20 -6.7 12 -11.1 71 71 W 15 24 29.90 1013 10 16 0.00 0.00
7:53 pm 19:53 Clear 20 -6.7 12 -11.1 71 71 W 17 28 29.92 1013 10 16 0.00 0.00
8:53 pm 20:53 Clear 20 -6.7 11 -11.7 68 68 W 15 24 29.93 1014 10 16 0.00 0.00
9:53 pm 21:53 Clear 19 -7.2 11 -11.7 71 71 W 14 22 29.93 1014 10 16 0.00 0.00
10:53 pm 22:53 Clear 19 -7.2 10 -12.2 68 68 W 14 22 29.93 1014 10 16 0.00 0.00
11:53 pm 23:53 Clear 18 -7.8 10 -12.2 71 71 W 15 24 29.93 1014 10 16 0.00 0.00

Powered by AerisWeather